Tokyo Downtown, Japan

6:30 AM JST on December 07, 2019 (GMT +0900)
Tokyo Downtown

Weather History for RJTD - October, 2019

Change the Weather History Date:

Friday, October 4, 2019

  Actual Average (WUND) Record (WUND)
Temperature  
Mean Temperature 77 °F -  
Max Temperature 83 °F 69 °F - (-1)
Min Temperature 71 °F 57 °F - (-1)
Cooling Degree Days 12    
Growing Degree Days 27 (Base 50)    
Moisture  
Dew Point 68 °F    
Average Humidity 67    
Maximum Humidity 97    
Minimum Humidity 52    
Precipitation  
Precipitation 0.00 in 0.20 in - ()
Sea Level Pressure  
Sea Level Pressure 29.66 in    
Wind  
Wind Speed 12 mph ()    
Max Wind Speed 18 mph    
Max Gust Speed -    
Visibility 11.2 miles    
Events Rain , Thunderstorm    
Averages and records for this station are not official NWS values.
T = Trace of Precipitation, MM = Missing Value Source: Averaged Metar Reports

Daily Weather History Graph

Daily Weather History Graph

Search for Another Location

Airport or City:

Astronomy

Oct. 04, 2019 Rise Set
Actual Time 5:37 AM JST 5:21 PM JST
Civil Twilight 5:12 AM JST 5:47 PM JST
Nautical Twilight 4:42 AM JST 6:16 PM JST
Astronomical Twilight 4:12 AM JST 6:46 PM JST
Moon 11:21 AM JST (10/4) 9:28 PM JST (10/4)
Length of Visible Light 12h 34m
Length of Day
11h 43m
Waxing Crescent, 34% of the Moon is Illuminated
Oct 4
Waxing Crescent
Oct 6
First Quarter
Oct 14
Full
Oct 21
Last Quarter
Oct 28
New

Hourly Weather History & Observations

Time (JST) Temp. Dew Point Humidity Pressure Visibility Wind Dir Wind Speed Gust Speed Precip Events Conditions
12:00 AM 76 °F 67 °F 66% 29.85 in - SSE 17.3 mph - -  
1:00 AM 76 °F 66 °F 64% 29.83 in - South 12.7 mph - -  
2:00 AM 76 °F 66 °F 65% 29.82 in - SSE 12.7 mph - -  
3:00 AM 76 °F 66 °F 63% 29.80 in 12 mi SSE 15.0 mph - - Rain Light Rain Showers
4:00 AM 76 °F 66 °F 63% 29.77 in - South 11.5 mph - -  
4:00 AM - - N/A% - - North - - N/A   Unknown
5:00 AM 76 °F 67 °F 67% 29.75 in - South 13.8 mph - -  
6:00 AM 73 °F 70 °F 86% 29.74 in 6 mi South 11.5 mph - - Rain Light Rain Showers
6:00 AM - - N/A% - - North - - N/A   Unknown
8:00 AM - - N/A% - - North - - N/A   Unknown
9:00 AM 73 °F 72 °F 97% 29.69 in 6 mi SSE 15.0 mph - - Thunderstorm Light Thunderstorm
10:00 AM 75 °F 72 °F 89% 29.66 in - SSE 11.5 mph - -  
11:00 AM 80 °F 74 °F 76% 29.63 in - SSE 13.8 mph - -  
12:00 PM 82 °F 74 °F 70% 29.58 in 12 mi SSE 18.4 mph - -   Partly Cloudy
1:00 PM 83 °F 72 °F 63% 29.55 in - SSE 17.3 mph - -  
2:00 PM 83 °F 68 °F 52% 29.53 in - South 15.0 mph - -  
3:00 PM 83 °F 68 °F 52% 29.53 in 12 mi SSW 16.1 mph - -   Scattered Clouds
4:00 PM 80 °F 67 °F 56% 29.52 in - South 13.8 mph - -  
4:00 PM - - N/A% - - North - - N/A   Unknown
5:00 PM 80 °F 65 °F 52% 29.53 in - SSW 6.9 mph - -  
6:00 PM 80 °F 65 °F 52% 29.55 in 19 mi SW 6.9 mph - -   Scattered Clouds
8:00 PM 74 °F 65 °F 66% 29.60 in - SW 4.6 mph - -  
8:00 PM - - N/A% - - North - - N/A   Unknown
10:00 PM 74 °F 65 °F 66% 29.63 in - South 2.3 mph - -  
10:00 PM - - N/A% - - North - - N/A   Unknown